Regional Weather Roundup
Issued by NWS

Home | Current Version | Previous Version | Text Only | Print | Product List | Glossary Off
Versions: 1 2 3 4 5 6 7 8 9 10 11 12 13 14 15 16 17 18 19 20 21 22 23 24 25 26 27 28 29 30 31 32 33 34 35 36 37 38 39 40 41 42 43 44 45 46 47 48 49 50

000
ASUS43 KDMX 290607
RWRIA

WEATHER ROUNDUP FOR IOWA
NATIONAL WEATHER SERVICE DES MOINES IA
100 AM CDT FRI AUG 29 2014

NOTE: "FAIR" INDICATES FEW OR NO CLOUDS BELOW 12,000 FEET WITH NO
SIGNIFICANT WEATHER AND/OR OBSTRUCTIONS TO VISIBILITY.

* - THESE STATIONS ARE NOT NWS STATIONS...THUS NOT UNDER NWS
QUALITY CONTROL.  THEY ALSO DO NOT REPORT WEATHER SUCH
AS PRECIPITATION OR FOG.

IAZ001>003-012>014-020>022-031>034-043>046-290700-
   NORTHWEST IOWA

CITY           SKY/WX    TMP DP  RH WIND       PRES   REMARKS
CARROLL *      CLOUDY    68  66  94 S8        29.87F
DENISON *      PTCLDY    70  68  94 SE12      29.84S
LE MARS *      CLEAR     72  72 100 S6G14     29.82R
ORANGE CITY *  CLEAR     73  70  88 S5        29.82F FOG
SHELDON *      PTCLDY    70  70 100 SE7       29.81F FOG
SIOUX CITY       N/A     72  70  93 SE5       29.80F FOG
6HR MIN TEMP:  72; 6HR MAX TEMP:  78;

SPENCER        CLOUDY    73  71  93 SE12      29.84F FOG
6HR MIN TEMP:  72; 6HR MAX TEMP:  73; 6HR PCP:  0.01;

STORM LAKE *   MOCLDY    70  70 100 S8        29.86R
$$

IAZ055>058-069>071-079>083-090>094-290700-
   SOUTHWEST IOWA

CITY           SKY/WX    TMP DP  RH WIND       PRES   REMARKS
ATLANTIC *     CLOUDY    68  66  94 CALM      29.87F
AUDUBON *      CLEAR     70  66  88 SE5       29.88F
CLARINDA *     PTCLDY    73  72  94 CALM      29.88F
COUNCIL BLFS * MOCLDY    72  72 100 S10       29.85S FOG
CRESTON *      MOCLDY    66  66 100 E9        29.92F
HARLAN  *      CLOUDY    70  66  88 S5        29.90S
LAMONI           N/A     74  72  93 SE6       29.90S
6HR MIN TEMP:  74; 6HR MAX TEMP:  79;

RED OAK *      CLOUDY    72  70  94 VRB3      29.87S
SHENANDOAH *   CLEAR     73  72  94 E7        29.86F
$$

IAZ047>049-059>061-072>074-084-290700-
   CENTRAL IOWA

CITY           SKY/WX    TMP DP  RH WIND       PRES   REMARKS
AMES           LGT RAIN  68  67  96 SW9       29.94S
6HR MIN TEMP:  66; 6HR MAX TEMP:  75; 6HR PCP:  1.39;

ANKENY *       LGT RAIN  68  68 100 SW12      29.96R
CHARITON *     CLOUDY    72  72 100 SE5G13    29.92S
DES MOINES     TSTM      69  67  93 NW9       29.95F FOG
6HR MIN TEMP:  69; 6HR MAX TEMP:  78; 6HR PCP:  2.22;

GRINNELL*      CLOUDY    70  66  88 SW6       29.96R
KNOXVILLE *    CLOUDY    72  68  88 S7        29.92S
MARSHALLTOWN   RAIN      68  67  96 S8        29.95S FOG
6HR MIN TEMP:  68; 6HR MAX TEMP:  73; 6HR PCP:  0.41;

PELLA *        CLOUDY    70  70  98 CALM      29.94R
PERRY *        LGT RAIN  68  66  94 SE13      29.92S
$$

IAZ004>006-015-016-023>025-035-036-290700-
   NORTH CENTRAL IOWA

CITY           SKY/WX    TMP DP  RH WIND       PRES   REMARKS
ALGONA *       DRIZZLE   72  72 100 SE15G22   29.87F
CLARION *      MOCLDY    68  68 100 S12G20    29.91R
ESTHERVILLE    CLOUDY    71  70  96 S13       29.85F FOG
6HR MIN TEMP:  66; 6HR MAX TEMP:  71; 6HR PCP:  0.08;

FORT DODGE *   CLOUDY    70  66  88 S9        29.90R
MASON CITY     LGT RAIN  70  69  97 S12       29.92S FOG
6HR MIN TEMP:  69; 6HR MAX TEMP:  71; 6HR PCP:  0.01;

FOREST CITY *  DRIZZLE   70  70 100 SE9       29.90S
IOWA FALLS *   HVY RAIN  68  67  94 S8        29.95R
$$

IAZ007>011-017>019-026>030-037>042-050>054-066-290700-
   NORTHEAST IOWA

CITY           SKY/WX    TMP DP  RH WIND       PRES   REMARKS
CEDAR RAPIDS   MOCLDY    68  68 100 SE6       29.94F FOG
6HR MIN TEMP:  68; 6HR MAX TEMP:  71;

CHARLES CITY * CLOUDY    68  68 100 S8        29.93F FOG
CLINTON *        N/A     66  64  94 SE7       29.99F
DECORAH *      CLOUDY    68  66  94 S9G15     29.93F
DUBUQUE          N/A     66  65  96 S7        29.98F
6HR MIN TEMP:  66; 6HR MAX TEMP:  69;

MONTICELLO *   CLOUDY    68  68 100 VRB3      29.96F
OELWEIN *      CLOUDY    68  68 100 SE14      29.94F FOG
WATERLOO       LGT RAIN  70  67  90 SE12      29.92S
6HR MIN TEMP:  70; 6HR MAX TEMP:  71; 6HR PCP: TRACE;

$$

IAZ064-065-067-068-078-290700-
   EAST CENTRAL IOWA

CITY           SKY/WX    TMP DP  RH WIND       PRES   REMARKS
DAVENPORT        N/A     69  67  93 S12       29.97F
6HR MIN TEMP:  68; 6HR MAX TEMP:  70;

IOWA CITY        N/A     68  68 100 SE6       29.96F
6HR MIN TEMP:  67; 6HR MAX TEMP:  70;

MT. PLEASANT *   N/A     70  68  95 SE8       29.95F
MUSCATINE *    PTCLDY    72  68  88 SE3       29.95F
QUAD CITIES      N/A     70  68  93 S8        29.96F
6HR MIN TEMP:  69; 6HR MAX TEMP:  71; 6HR PCP:  0.01;

$$

IAZ062-063-075>077-085>089-095>099-290700-
   SOUTHEAST IOWA

CITY           SKY/WX    TMP DP  RH WIND       PRES   REMARKS
BURLINGTON       N/A     71  69  93 SE5       29.95F
6HR MIN TEMP:  71; 6HR MAX TEMP:  72;

FAIRFIELD *    MOCLDY    70  68  94 SE10      29.94F
FORT MADISON * CLEAR     72  72 100 SE3       29.96F
KEOKUK *       CLEAR     72  70  94 SE7G13    29.94F
OSKALOOSA *      N/A     68  67  97 SE9       29.93F
CENTERVILLE *  CLEAR     70  70 100 SE7       29.94F
OTTUMWA          N/A     70  67  90 SE10      29.93F
6HR MIN TEMP:  69; 6HR MAX TEMP:  72;

WASHINGTON *   PTCLDY    70  70 100 S8        29.95F
$$

ABBREVIATIONS USED IN REMARKS
   TC - TEMPERATURES IN CELSIUS
  WCI - WIND CHILL INDEX
   HX - HEAT INDEX
  VSB - VISIBILITY
$$



USA.gov is the U.S. government's official web portal to all federal, state and local government web resources and services.